Hourly Data Report for October 14, 2016

All times are specified in Local Standard Time (LST). Add 1 hour to adjust for Daylight Saving Time where and when it is observed.

CLYDE RIVER A
NUNAVUT

70°29'09.000" N
68°31'01.000" W
26.50 m
2400804
71090
YCY

Download Data

Hourly Data (October 2016)
Hourly Data Report for October 14, 2016
Temp Definition
°C
Dew Point Temp Definition
°C
Rel Hum Definition
%
Wind Dir Definition
10's deg

Wind Spd Definition
km/h
Visibility Definition
km
Stn Press Definition
kPa
Hmdx Definition


Wind Chill Definition


Weather Definition


TIME
00:00 Legend Double Dagger -7.3 -9.1 87 29 24 16.1 100.76   -15 LegendNANA
01:00 Legend Double Dagger -6.7 -8.1 90 30 22 6.4 100.76   -14 Snow
02:00 Legend Double Dagger -7.2 -8.7 89 30 22 16.1 100.75   -15 LegendNANA
03:00 Legend Double Dagger -7.1 -8.8 88 30 26 16.1 100.74   -15 LegendNANA
04:00 Legend Double Dagger -7.1 -8.9 87 30 24 16.1 100.74   -15 LegendNANA
05:00 Legend Double Dagger -7.3 -9.1 87 29 24 16.1 100.72   -15 LegendNANA
06:00 Legend Double Dagger -6.5 -8.3 87 30 18 16.1 100.71   -13 LegendNANA
07:00 Legend Double Dagger -7.3 -9.3 86 29 22 16.1 100.71   -15 LegendNANA
08:00 Legend Double Dagger -7.1 -9.2 85 29 22 16.1 100.72   -15 LegendNANA
09:00 Legend Double Dagger -6.5 -8.5 86 29 21 16.1 100.70   -14 LegendNANA
10:00 Legend Double Dagger -5.7 -8.0 84 29 21 16.1 100.69   -13 LegendNANA
11:00 Legend Double Dagger -5.7 -8.0 84 29 21 16.1 100.68   -13 LegendNANA
12:00 Legend Double Dagger -5.4 -8.2 81 29 9 16.1 100.67   -9 LegendNANA
13:00 Legend Double Dagger -6.3 -9.0 81 28 8 16.1 100.66   -10 LegendNANA
14:00 Legend Double Dagger -6.0 -9.2 78 26 8 16.1 100.68   -10 LegendNANA
15:00 Legend Double Dagger -8.1 -10.6 82 28 8 16.1 100.68   -12 LegendNANA
16:00 Legend Double Dagger -8.8 -11.2 83 27 5 16.1 100.68   -12 LegendNANA
17:00 Legend Double Dagger -9.5 -11.2 88 28 8 16.1 100.67   -14 LegendNANA
18:00 Legend Double Dagger -9.4 -11.4 85 29 8 16.1 100.64   -14 LegendNANA
19:00 Legend Double Dagger -9.4 -11.0 88 29 5 16.1 100.60   -12 LegendNANA
20:00 Legend Double Dagger -8.4 -10.0 88 27 8 16.1 100.57   -13 LegendNANA
21:00 Legend Double Dagger -7.9 -9.5 89 31 9 16.1 100.51   -12 LegendNANA
22:00 Legend Double Dagger -8.0 -9.7 88 30 11 16.1 100.46   -13 LegendNANA
23:00 Legend Double Dagger -8.3 -9.7 89 33 8 16.1 100.41   -12 LegendNANA

Notes on Data Quality.

Legend

  • E = Estimated
  • M = Missing
  • NA = Not Available
  • ‡ = Partner data that is not subject to review by the National Climate Archives
Date modified: